This demonstration page uses our WeatherBlox Daily Observations layout. Learn more.

Left ArrowRight Arrow

Hourly Observations for December 5, 2022

Temp ( °F °C ) Dew Point ( °F °C ) Humidity (%) Winds ( mph kmh ) Pressure ( in mb ) Visibility ( mi km ) Precip ( " mm )
12:53 am 00:53 Clear 34 1.1 16 -8.9 47 47 S 8 13 29.82 1010 10 16 0.00 0.00
1:53 am 01:53 Clear 30 -1.1 15 -9.4 53 53 S 6 9 29.79 1009 10 16 0.00 0.00
2:53 am 02:53 Clear 26 -3.3 14 -10 60 60 Calm 29.79 1009 10 16 0.00 0.00
3:53 am 03:53 Clear 25 -3.9 14 -10 62 62 Calm 29.79 1009 10 16 0.00 0.00
4:53 am 04:53 Clear 29 -1.7 15 -9.4 56 56 SSW 5 7 29.77 1008 10 16 0.00 0.00
5:53 am 05:53 Clear 24 -4.4 14 -10 65 65 Calm 29.76 1008 10 16 0.00 0.00
6:53 am 06:53 Clear 23 -5 13 -10.6 65 65 W 3 6 29.80 1009 10 16 0.00 0.00
7:53 am 07:53 Sunny 29 -1.7 18 -7.8 63 63 N 12 19 29.83 1010 10 16 0.00 0.00
8:53 am 08:53 Sunny 34 1.1 21 -6.1 59 59 N 13 20 29.83 1010 10 16 0.00 0.00
9:53 am 09:53 Sunny 36 2.2 21 -6.1 54 54 NNE 21 33 29.85 1011 10 16 0.00 0.00
10:53 am 10:53 Sunny 39 3.9 21 -6.1 48 48 NNE 15 24 29.87 1012 10 16 0.00 0.00
11:53 am 11:53 Sunny 40 4.4 21 -6.1 46 46 N 18 30 29.86 1011 10 16 0.00 0.00
12:53 pm 12:53 Sunny 40 4.4 21 -6.1 46 46 N 18 30 29.86 1011 10 16 0.00 0.00
1:53 pm 13:53 Sunny 39 3.9 20 -6.7 46 46 N 17 28 29.86 1011 10 16 0.00 0.00
2:53 pm 14:53 Sunny 38 3.3 20 -6.7 48 48 N 16 26 29.87 1012 10 16 0.00 0.00
3:53 pm 15:53 Sunny 36 2.2 20 -6.7 52 52 N 20 31 29.93 1014 10 16 0.00 0.00
4:53 pm 16:53 Sunny 32 0 20 -6.7 61 61 NNE 17 28 29.95 1014 10 16 0.00 0.00
5:53 pm 17:53 Clear 31 -0.6 19 -7.2 61 61 NNE 14 22 29.96 1015 10 16 0.00 0.00
6:53 pm 18:53 Clear 30 -1.1 18 -7.8 60 60 NNE 14 22 29.99 1016 10 16 0.00 0.00
7:53 pm 19:53 Cloudy 30 -1.1 17 -8.3 58 58 NNE 14 22 29.99 1016 10 16 0.00 0.00
8:53 pm 20:53 Mostly Clear 28 -2.2 16 -8.9 60 60 NE 13 20 29.99 1016 10 16 0.00 0.00
9:53 pm 21:53 Mostly Cloudy 27 -2.8 17 -8.3 66 66 NNE 8 13 30.01 1016 10 16 0.00 0.00
10:53 pm 22:53 Clear 26 -3.3 17 -8.3 68 68 NE 9 15 29.98 1015 10 16 0.00 0.00
11:53 pm 23:53 Mostly Cloudy 26 -3.3 17 -8.3 68 68 NNE 6 9 30.00 1016 10 16 0.00 0.00

Powered by AerisWeather